Presure
140 144 145 150 152 157 184 187 192 172 182 175 169 156 155 149 157 163 170 158 169 169 172 172 172 125 173 149 119 171 170 171 159 139 137 139 121 172 157 190 180 212 267
134 143 142 143 146 147 148 149 152 182 193 175 182 178 165 170 170 169 171 172 165 152 163 169 160 157 176 174 197 180 175 177 174 143 133 122 133 113 166 192 191 178 135
135 154 138 142 136 141 140 142 143 145 145 147 176 173 181 183 180 180 181 178 175 172 100 172 166 185 182 184 178 178 176 184 172 119 132 127 141 143 155 192 194 90 184
143 159 145 143 126 133 139 145 136 135 144 138 136 144 149 152 170 174 185 170 175 169 150 168 182 181 171 184 196 187 174 184 158 132 124 127 138 143 150 168 184 193 192
142 139 146 151 149 139 133 128 129 144 154 143 131 136 135 134 138 143 145 147 145 142 147 145 140 120 148 163 162 192 192 128 128 129 130 132 153 135 154 157 162 175 179
134 151 135 148 142 134 141 150 138 158 133 133 134 137 141 136 129 147 136 138 144 141 137 136 150 141 140 136 142 139 142 145 143 141 125 138 134 144 143 113 163 158 170
145 132 126 138 149 147 128 135 152 143 138 126 132 145 199 207 160 153 182 181 142 134 135 138 128 142 128 157 130 153 153 137 135 139 165 141 118 177 167 173 150 159 169
138 142 123 149 141 136 123 140 140 125 143 125 134 144 135 140 133 188 201 207 196 157 181 158 133 158 135 137 139 154 129 128 165 169 130 134 186 183 182 166 171 170 167
129 127 150 150 133 140 134 126 140 142 129 122 147 190 192 152 150 191 212 188 197 199 192 116 195 125 211 182 131 128 135 147 142 130 130 140 151 129 176 178 187 173 171
176 166 136 126 132 148 149 147 149 141 158 123 159 149 149 144 134 139 141 167 154 180 199 200 197 126 191 170 132 132 134 161 130 134 138 135 128 185 191 199 180 180 180
154 142 120 144 143 139 137 128 152 158 162 139 164 196 209 212 202 177 188 197 192 167 197 114 167 136 125 126 127 132 133 135 126 128 145 152 182 185 190 182 197 180 187
145 122 134 137 137 121 141 108 119 151 157 155 130 143 172 212 197 153 200 169 157 191 192 186 114 150 122 119 149 152 134 179 191 191 191 191 129 183 182 185 198 182 175
125 141 140 139 120 123 109 135 152 103 109 160 155 162 182 192 145 203 196 195 159 188 105 195 202 108 188 112 113 121 190 194 196 124 198 193 187 195 185 188 192 193 184
132 122 136 137 124 142 134 148 142 144 138 119 151 150 167 148 132 150 128 181 189 198 194 197 192 183 180 193 192 189 148 195 191 195 196 194 188 193 189 195 193 190 184
129 135 143 123 116 142 141 140 133 135 146 158 144 142 126 152 133 194 194 192 209 208 205 199 188 195 154 204 199 205 218 214 211 211 206 202 194 192 194 186 188 188 185
125 131 132 129 139 131 135 128 138 142 149 116 141 144 144 124 183 133 193 205 220 188 205 162 193 163 163 208 161 153 169 177 218 221 214 209 210 206 196 192 187 184 186
158 90 126 92 117 116 126 117 136 113 149 131 141 150 118 119 178 179 188 198 148 207 177 158 154 154 192 201 175 150 178 162 161 180 188 201 197 200 193 190 180 190 171
153 154 126 121 126 128 128 168 121 157 132 140 138 155 158 166 176 188 195 189 204 147 156 141 186 132 173 146 158 163 174 173 154 178 181 193 182 179 182 187 194 172 177
92 97 99 164 137 142 164 206 169 181 206 194 201 189 204 211 176 181 131 171 202 213 196 201 198 195 139 152 161 159 164 161 178 176 171 168 194 188 180 189 166 172 167
177 121 158 201 206 155 103 122 165 179 194 180 157 155 144 150 196 190 188 192 190 188 202 168 200 187 187 190 148 210 178 159 177 154 150 186 200 201 191 183 181 173 163
136 135 147 150 131 148 144 184 175 139 139 137 178 142 158 168 175 179 187 187 187 156 139 186 182 173 205 150 137 160 190 165 154 168 187 201 198 182 174 188 182 180 185
167 145 175 166 157 163 144 153 169 138 144 151 146 152 116 195 195 172 200 203 174 158 175 191 198 174 180 171 178 157 155 162 170 168 187 184 166 173 178 181 181 189 193
190 192 176 169 191 150 167 158 154 155 152 160 163 172 185 167 158 171 161 192 160 166 169 182 198 179 179 183 187 190 173 153 167 182 179 186 172 179 179 176 176 184 179
186 187 180 184 175 174 175 173 172 171 174 176 176 178 165 171 177 181 188 183 169 165 171 184 184 147 182 135 197 194 185 190 185 184 180 167 171 177 181 185 181 186 184
198 198 186 185 181 184 179 177 177 169 184 197 186 166 175 200 182 177 182 184 177 191 184 188 176 181 190 172 184 197 199 181 178 189 176 175 172 195 177 195 191 177 187
196 195 178 190 186 186 186 182 182 178 180 178 159 154 153 167 189 187 188 181 173 173 167 206 200 168 201 194 174 174 179 199 203 205 201 199 200 190 183 169 181 185 176
Wind_Speed
19 19 16 13 13 11 21 22 25 19 24 25 26 23 19 22 20 20 19 17 18 19 21 22 23 16 24 21 22 21 23 24 22 26 27 29 15 27 24 23 25 26 12
22 21 19 18 15 10 9 10 9 17 25 22 24 26 24 24 23 21 22 21 20 18 20 22 21 21 25 24 23 22 21 22 23 23 26 20 24 17 34 26 22 17 23
24 23 22 20 15 14 16 15 13 12 12 12 20 21 25 25 25 26 25 25 23 22 4 24 25 27 26 25 24 24 24 23 20 21 24 24 31 33 33 27 26 13 23
21 23 22 22 21 19 20 18 15 13 14 13 15 15 13 14 20 22 27 17 20 14 9 19 27 25 23 29 26 24 24 23 22 21 26 26 29 31 36 35 32 28 27
24 24 25 22 23 23 20 15 15 19 19 17 15 15 12 14 15 15 13 9 6 8 8 9 13 18 15 20 21 24 23 19 23 22 25 28 28 32 30 36 37 35 27
30 32 29 28 26 25 21 21 20 17 20 20 19 21 19 18 13 19 14 13 14 14 13 18 16 17 17 20 19 20 20 22 24 24 29 26 29 30 32 24 33 39 38
33 34 31 29 28 25 23 22 19 21 23 18 20 23 32 32 24 22 30 31 20 20 19 19 24 22 25 24 24 27 28 25 26 31 34 32 30 33 36 34 23 32 32
37 36 31 34 26 28 23 23 23 23 25 21 24 26 22 24 21 31 35 35 34 28 33 28 22 28 26 27 27 28 26 28 32 33 34 35 30 33 36 35 36 32 30
42 36 40 34 31 31 28 28 28 29 26 22 29 27 29 26 25 31 36 32 33 34 34 17 35 24 37 34 31 31 33 34 33 35 34 39 40 38 38 42 38 38 38
55 48 37 37 36 35 35 34 33 32 31 26 34 33 32 28 27 28 27 32 29 32 33 35 36 25 36 34 32 34 34 36 37 39 40 39 41 35 35 37 42 44 40
43 39 45 39 37 37 36 35 36 35 34 31 34 32 33 34 35 36 36 36 33 31 35 30 34 33 32 32 34 38 37 37 39 42 39 42 38 37 37 38 38 40 41
42 46 44 41 41 38 40 24 29 38 37 37 32 37 38 35 37 32 36 35 34 37 37 35 34 38 36 36 39 39 41 42 43 42 42 41 31 40 40 40 42 41 39
52 49 46 46 39 40 33 39 41 26 26 40 43 41 39 38 34 38 39 39 40 42 31 40 41 35 38 39 38 42 41 44 43 32 43 41 41 41 40 41 42 41 40
50 49 49 50 42 46 43 44 44 46 43 35 45 45 43 46 39 39 37 43 42 44 44 42 41 44 43 37 38 41 54 43 45 45 44 41 42 41 41 41 41 41 41
52 48 54 42 43 47 49 46 47 47 50 50 50 48 46 46 46 45 46 46 44 45 43 41 42 39 44 39 38 38 40 43 45 48 46 45 45 41 42 39 40 42 43
48 51 52 53 50 45 51 46 53 55 55 43 55 57 53 49 50 54 47 46 47 43 43 44 42 48 46 35 45 48 42 41 42 43 43 44 45 43 42 41 41 42 44
65 34 44 42 38 38 51 44 61 44 60 54 61 61 48 50 56 53 51 47 52 46 50 46 52 57 40 35 40 51 44 45 48 45 49 47 46 44 43 44 43 47 44
67 72 47 43 55 60 59 65 54 70 60 66 65 64 67 64 63 51 53 56 50 54 54 54 54 51 48 52 46 48 47 50 55 53 51 52 49 48 47 47 46 43 47
41 44 48 72 59 66 65 65 61 70 66 66 63 63 56 54 59 59 60 48 55 54 60 47 44 51 49 48 52 53 54 55 58 51 50 53 60 53 50 48 48 51 50
70 55 71 63 65 73 51 57 68 71 67 64 61 62 64 68 58 56 63 57 56 51 54 51 55 55 55 56 58 58 62 59 61 60 63 72 62 57 55 56 55 54 56
75 71 75 83 61 55 79 69 69 74 66 65 68 77 80 80 76 63 62 61 61 60 55 56 51 48 54 50 61 52 66 66 65 63 70 64 58 60 61 59 60 60 60
96 81 95 92 88 70 81 80 70 75 81 79 82 57 47 70 68 67 62 65 58 68 66 69 67 57 58 53 59 59 67 65 61 65 79 71 65 66 69 67 68 65 63
104 98 98 92 81 83 91 93 91 93 91 90 85 67 71 73 71 73 76 70 76 72 74 71 69 64 68 69 74 77 70 68 67 74 73 67 68 70 76 73 72 71 71
101 101 100 99 101 99 98 98 94 97 100 97 93 87 80 81 83 79 72 69 76 78 79 74 71 76 77 75 80 78 73 74 74 81 77 76 74 75 77 77 79 73 74
106 108 104 103 103 103 101 100 100 94 95 74 93 89 91 81 79 80 81 82 81 82 79 79 79 83 84 79 80 81 82 75 77 83 77 78 78 87 78 83 80 80 78
110 110 86 108 108 105 105 104 104 100 99 100 79 74 68 76 85 88 90 87 85 85 84 84 84 80 90 85 82 80 83 86 87 87 87 85 85 82 84 74 85 83 85
Wind_Direction
227 219 220 236 244 252 252 254 246 255 249 257 271 278 275 289 296 300 302 307 312 317 327 332 337 320 342 332 332 346 352 2 6 351 354 2 343 13 10 18 10 35 27
228 232 233 233 241 239 244 256 269 253 245 270 259 269 288 289 294 300 301 307 315 319 330 329 335 330 334 331 349 341 350 354 1 348 347 354 353 311 13 11 14 7 8
225 241 241 246 245 245 243 246 255 263 276 288 265 279 274 276 283 290 293 299 305 313 15 327 331 326 331 333 331 332 340 343 356 336 340 344 349 354 4 6 10 24 7
235 246 234 235 243 244 252 254 268 270 274 277 291 297 299 301 286 291 291 304 303 315 359 329 321 329 338 329 332 329 333 339 329 326 334 338 340 347 351 3 4 12 2
237 227 236 238 237 236 249 251 261 270 267 271 286 291 297 306 312 312 313 314 306 310 324 323 319 327 337 332 334 326 328 309 313 322 321 328 345 335 350 353 353 354 2
220 248 230 248 236 235 245 254 255 266 269 276 285 288 290 290 300 298 307 308 303 300 295 302 312 309 312 320 321 323 323 321 321 316 320 336 327 336 337 337 348 346 343
234 222 227 237 251 251 243 249 261 251 257 268 275 281 274 274 281 285 288 290 294 292 294 291 298 302 310 313 314 317 321 317 317 320 330 323 320 327 334 331 333 338 338
228 235 227 245 241 241 239 252 252 250 257 268 274 272 279 284 285 283 278 276 286 291 297 295 288 300 296 299 307 309 315 317 314 318 319 318 312 311 313 325 323 326 333
221 222 244 246 236 247 249 246 257 261 259 262 274 274 273 285 284 276 271 286 288 290 294 322 299 291 296 302 302 309 310 309 313 313 314 318 320 317 316 313 309 317 321
246 242 230 229 238 255 260 262 266 261 277 264 281 280 281 274 277 279 279 291 288 288 291 292 293 289 299 300 300 301 304 304 308 309 311 312 312 311 308 302 312 313 316
230 228 224 242 247 248 249 250 268 274 277 269 283 283 279 272 281 286 291 289 293 289 288 288 295 293 293 298 302 299 300 301 300 301 303 305 305 305 305 306 302 308 308
229 222 233 239 241 238 253 241 255 269 275 277 269 275 287 274 284 277 285 283 285 291 292 292 292 294 299 301 299 299 296 297 300 300 301 302 308 306 306 307 305 309 313
220 233 236 241 231 238 245 254 266 264 268 275 276 280 287 289 279 283 287 286 286 291 289 292 290 298 293 293 296 301 295 297 298 296 298 299 300 302 301 304 304 305 306
225 224 237 241 238 252 254 259 261 264 268 273 273 278 286 275 279 282 281 283 284 282 289 289 291 293 295 294 292 295 295 296 302 302 303 302 299 300 301 302 305 306 307
230 237 243 239 247 252 258 260 258 264 268 277 274 274 274 281 280 281 281 284 282 279 281 284 288 290 287 290 293 294 289 292 293 294 298 298 299 302 302 303 304 305 305
241 241 244 249 252 256 256 256 262 266 271 265 272 275 278 276 283 278 283 283 278 282 281 287 285 291 291 290 295 299 310 315 296 294 297 295 294 295 299 301 302 303 303
242 241 236 257 247 251 257 256 259 261 267 267 270 276 272 273 279 280 280 278 289 276 277 283 291 292 280 275 291 292 304 300 301 319 322 307 302 298 300 300 300 299 295
241 245 241 248 255 259 261 264 264 268 265 268 271 273 276 277 277 277 277 275 268 287 286 291 277 280 284 284 290 298 304 300 287 313 317 320 304 302 301 299 298 292 297
248 250 251 251 253 257 260 257 260 268 262 268 267 277 275 270 276 274 275 272 269 266 269 277 283 278 278 289 290 291 298 296 307 308 306 301 311 300 297 297 290 292 292
242 254 246 250 252 251 254 265 270 274 262 269 269 271 274 275 269 265 270 271 276 278 269 288 285 292 292 289 282 292 298 285 300 289 290 310 307 301 296 293 294 290 289
251 248 246 246 251 250 258 252 256 262 269 277 261 274 276 273 272 275 272 274 278 282 276 284 291 288 283 266 283 269 293 283 282 289 301 309 302 296 292 297 294 292 294
234 248 239 242 245 235 253 252 243 266 267 266 266 265 273 257 266 281 276 263 277 282 284 279 277 276 280 269 277 269 275 276 281 286 297 295 289 292 292 292 292 293 294
236 232 241 245 228 249 247 251 258 262 265 264 263 257 264 273 274 279 278 273 282 284 282 284 280 280 279 280 281 282 278 278 277 288 288 288 285 288 288 287 288 291 290
239 239 242 242 246 249 251 254 255 259 259 259 263 267 267 269 271 272 276 271 270 274 276 279 277 273 277 277 280 281 276 282 280 283 282 280 282 284 286 287 287 288 290
236 237 242 244 246 248 251 253 255 257 255 249 258 267 268 263 269 274 275 275 272 273 276 278 278 277 278 279 277 278 277 273 277 278 276 276 278 286 281 287 286 282 290
239 241 238 242 246 248 249 253 254 257 259 260 260 261 266 271 271 272 271 271 272 274 275 276 275 275 275 276 279 279 280 278 277 278 278 281 282 282 280 284 280 283 283